CEB425 RPLL-RPUV

Flight info

Callsign CEB425
Flight time 0h 37m
Altitude 25000
Route TIMON2V TIMON W15 RAGAY W15A NGA
Aircraft A20N/M-SDE2E3FGHIRWXY/LB1

Departure

Time 2026-04-14 12:37
Airport Ninoy Aquino International Airport (RPLL)

Arrival

Time 2026-04-14 13:15
Airport Virac Airport (RPUV)
Time Latitude Longitude Altitude Speed Heading
2026-04-14 12:05 14.51652 121.01714 82 ft 0 kts 225°
2026-04-14 12:25 14.51662 121.01724 82 ft 2 kts 224°
2026-04-14 12:26 14.51672 121.01735 82 ft 2 kts 225°
2026-04-14 12:26 14.51680 121.01743 82 ft 0 kts 225°
2026-04-14 12:26 14.51691 121.01752 82 ft 2 kts 199°
2026-04-14 12:26 14.51701 121.01754 82 ft 2 kts 183°
2026-04-14 12:27 14.51716 121.01752 82 ft 2 kts 157°
2026-04-14 12:27 14.51720 121.01750 82 ft 2 kts 148°
2026-04-14 12:27 14.51726 121.01746 82 ft 0 kts 136°
2026-04-14 12:27 14.51731 121.01740 82 ft 0 kts 133°
2026-04-14 12:29 14.51730 121.01741 82 ft 0 kts 133°
2026-04-14 12:30 14.51725 121.01746 82 ft 2 kts 133°
2026-04-14 12:30 14.51706 121.01767 82 ft 6 kts 137°
2026-04-14 12:30 14.51679 121.01785 82 ft 7 kts 156°
2026-04-14 12:30 14.51613 121.01768 82 ft 8 kts 225°
2026-04-14 12:31 14.51569 121.01721 82 ft 9 kts 226°
2026-04-14 12:31 14.51520 121.01669 82 ft 10 kts 225°
2026-04-14 12:31 14.51473 121.01620 82 ft 9 kts 229°
2026-04-14 12:31 14.51476 121.01559 82 ft 10 kts 316°
2026-04-14 12:32 14.51534 121.01508 82 ft 11 kts 316°
2026-04-14 12:32 14.51596 121.01445 82 ft 13 kts 315°
2026-04-14 12:32 14.51665 121.01374 82 ft 14 kts 313°
2026-04-14 12:32 14.51740 121.01296 82 ft 15 kts 315°
2026-04-14 12:33 14.51821 121.01212 82 ft 17 kts 315°
2026-04-14 12:33 14.51912 121.01118 82 ft 19 kts 315°
2026-04-14 12:33 14.52014 121.01014 82 ft 20 kts 315°
2026-04-14 12:33 14.52080 121.00944 82 ft 20 kts 314°
2026-04-14 12:34 14.52214 121.00806 82 ft 20 kts 315°
2026-04-14 12:34 14.52279 121.00740 82 ft 19 kts 315°
2026-04-14 12:34 14.52377 121.00639 82 ft 19 kts 315°
2026-04-14 12:34 14.52496 121.00515 82 ft 9 kts 314°
2026-04-14 12:35 14.52529 121.00481 82 ft 10 kts 312°
2026-04-14 12:35 14.52543 121.00380 82 ft 11 kts 265°
2026-04-14 12:35 14.52538 121.00292 82 ft 10 kts 266°
2026-04-14 12:35 14.52518 121.00254 82 ft 6 kts 178°
2026-04-14 12:36 14.52491 121.00272 82 ft 7 kts 133°
2026-04-14 12:36 14.52439 121.00327 82 ft 2 kts 135°
2026-04-14 12:36 14.52438 121.00328 82 ft 0 kts 135°
2026-04-14 12:36 14.52369 121.00398 82 ft 48 kts 134°
2026-04-14 12:37 14.51938 121.00841 82 ft 124 kts 135°
2026-04-14 12:37 14.51177 121.01632 183 ft 175 kts 135°
2026-04-14 12:37 14.50297 121.02553 766 ft 189 kts 135°
2026-04-14 12:37 14.49368 121.03520 1638 ft 191 kts 134°
2026-04-14 12:38 14.47436 121.05505 2801 ft 212 kts 134°
2026-04-14 12:38 14.46295 121.06681 2968 ft 249 kts 133°
2026-04-14 12:38 14.45010 121.08010 2993 ft 268 kts 134°
2026-04-14 12:39 14.43704 121.09408 2997 ft 270 kts 130°
2026-04-14 12:39 14.42535 121.10944 3146 ft 276 kts 123°
2026-04-14 12:39 14.41824 121.12054 3609 ft 279 kts 121°
2026-04-14 12:39 14.40453 121.14253 4937 ft 276 kts 120°
2026-04-14 12:40 14.39432 121.15897 5832 ft 277 kts 120°
2026-04-14 12:40 14.38738 121.17019 6386 ft 279 kts 120°
2026-04-14 12:40 14.37702 121.18692 7185 ft 281 kts 120°
2026-04-14 12:40 14.36643 121.20399 7977 ft 284 kts 120°
2026-04-14 12:41 14.35581 121.22109 8722 ft 286 kts 120°
2026-04-14 12:41 14.34146 121.24419 9659 ft 291 kts 121°
2026-04-14 12:41 14.33416 121.25594 10091 ft 293 kts 120°
2026-04-14 12:41 14.32296 121.27396 10573 ft 304 kts 121°
2026-04-14 12:42 14.30722 121.29928 10948 ft 326 kts 121°
2026-04-14 12:42 14.29475 121.31931 11213 ft 342 kts 121°
2026-04-14 12:42 14.28603 121.33331 11386 ft 352 kts 121°
2026-04-14 12:42 14.27259 121.35487 11696 ft 364 kts 121°
2026-04-14 12:43 14.25876 121.37704 12203 ft 369 kts 121°
2026-04-14 12:43 14.24477 121.39947 12764 ft 372 kts 121°
2026-04-14 12:43 14.22600 121.42950 13488 ft 376 kts 121°
2026-04-14 12:43 14.21177 121.45222 14018 ft 379 kts 121°
2026-04-14 12:44 14.20225 121.46742 14378 ft 381 kts 121°
2026-04-14 12:44 14.18788 121.49040 14908 ft 384 kts 121°
2026-04-14 12:44 14.17347 121.51347 15422 ft 387 kts 121°
2026-04-14 12:45 14.13912 121.56846 16616 ft 392 kts 120°
2026-04-14 12:45 14.12427 121.59219 17104 ft 395 kts 120°
2026-04-14 12:45 14.11454 121.60785 17420 ft 396 kts 118°
2026-04-14 12:45 14.09853 121.64197 18051 ft 396 kts 107°
2026-04-14 12:46 14.09108 121.66936 18495 ft 398 kts 99°
2026-04-14 12:46 14.08803 121.68778 18771 ft 399 kts 97°
2026-04-14 12:46 14.08401 121.71621 19196 ft 403 kts 96°
2026-04-14 12:46 14.08013 121.74480 19698 ft 403 kts 97°
2026-04-14 12:47 14.07485 121.78316 20302 ft 406 kts 97°
2026-04-14 12:47 14.07081 121.81187 20729 ft 409 kts 97°
2026-04-14 12:47 14.06664 121.84117 21161 ft 412 kts 97°
2026-04-14 12:47 14.06245 121.87045 21585 ft 414 kts 97°
2026-04-14 12:48 14.05822 121.89968 21992 ft 417 kts 99°
2026-04-14 12:48 14.05445 121.91910 22256 ft 419 kts 103°
2026-04-14 12:48 14.04251 121.95737 22909 ft 420 kts 111°
2026-04-14 12:48 14.03449 121.97570 23297 ft 419 kts 115°
2026-04-14 12:49 14.01696 122.01125 23985 ft 419 kts 116°
2026-04-14 12:49 14.00363 122.03764 24408 ft 421 kts 116°
2026-04-14 12:49 13.99002 122.06466 24798 ft 424 kts 116°
2026-04-14 12:49 13.97641 122.09176 24922 ft 426 kts 116°
2026-04-14 12:50 13.96739 122.10976 24925 ft 426 kts 116°
2026-04-14 12:50 13.94028 122.16396 24924 ft 425 kts 116°
2026-04-14 12:50 13.92219 122.20014 24928 ft 425 kts 116°
2026-04-14 12:51 13.91314 122.21818 24929 ft 425 kts 116°
2026-04-14 12:51 13.89521 122.25390 24929 ft 425 kts 116°
2026-04-14 12:51 13.88155 122.28110 24928 ft 425 kts 116°
2026-04-14 12:51 13.86806 122.30800 24928 ft 425 kts 116°
2026-04-14 12:52 13.85444 122.33518 24928 ft 425 kts 116°
2026-04-14 12:52 13.84552 122.35296 24927 ft 425 kts 116°
2026-04-14 12:52 13.83187 122.38019 24926 ft 425 kts 116°
2026-04-14 12:52 13.81839 122.40707 24927 ft 425 kts 116°
2026-04-14 12:53 13.80029 122.44315 24927 ft 425 kts 116°
2026-04-14 12:53 13.78669 122.47026 24928 ft 424 kts 116°
2026-04-14 12:53 13.77332 122.49693 24928 ft 424 kts 116°
2026-04-14 12:53 13.76420 122.51508 24929 ft 424 kts 116°
2026-04-14 12:54 13.74629 122.55094 24927 ft 424 kts 115°
2026-04-14 12:54 13.73447 122.57883 24925 ft 424 kts 110°
2026-04-14 12:54 13.72505 122.60749 24924 ft 424 kts 105°
2026-04-14 12:54 13.71790 122.63691 24925 ft 424 kts 102°
2026-04-14 12:55 13.71368 122.65638 24922 ft 424 kts 102°
2026-04-14 12:55 13.70735 122.68625 24918 ft 424 kts 102°
2026-04-14 12:55 13.69894 122.72602 24788 ft 425 kts 102°
2026-04-14 12:55 13.69263 122.75572 24359 ft 422 kts 102°
2026-04-14 12:56 13.68850 122.77509 23992 ft 420 kts 102°
2026-04-14 12:56 13.68226 122.80426 23362 ft 420 kts 102°
2026-04-14 12:56 13.67392 122.84319 22445 ft 421 kts 102°
2026-04-14 12:56 13.66756 122.87277 21809 ft 420 kts 102°
2026-04-14 12:57 13.66135 122.90163 21306 ft 416 kts 102°
2026-04-14 12:57 13.65717 122.92108 20957 ft 413 kts 101°
2026-04-14 12:57 13.64900 122.95902 20281 ft 408 kts 101°
2026-04-14 12:57 13.64491 122.97800 19944 ft 406 kts 101°
2026-04-14 12:58 13.63881 123.00633 19447 ft 402 kts 101°
2026-04-14 12:58 13.63075 123.04379 18782 ft 397 kts 101°
2026-04-14 12:58 13.62483 123.07125 18295 ft 393 kts 101°
2026-04-14 12:58 13.62091 123.08943 17974 ft 390 kts 101°
2026-04-14 12:59 13.61511 123.11638 17495 ft 387 kts 100°
2026-04-14 12:59 13.60739 123.15228 16854 ft 383 kts 101°
2026-04-14 12:59 13.60359 123.16991 16522 ft 381 kts 101°
2026-04-14 12:59 13.59785 123.19656 16025 ft 378 kts 101°
2026-04-14 13:00 13.59214 123.22293 15534 ft 376 kts 101°
2026-04-14 13:00 13.58653 123.24886 15043 ft 373 kts 101°
2026-04-14 13:00 13.57967 123.28373 14368 ft 371 kts 98°
2026-04-14 13:00 13.57673 123.30108 14000 ft 368 kts 98°
2026-04-14 13:01 13.57246 123.32671 13455 ft 358 kts 98°
2026-04-14 13:01 13.56830 123.35178 12954 ft 353 kts 98°
2026-04-14 13:01 13.56422 123.37640 12475 ft 351 kts 98°
2026-04-14 13:01 13.55874 123.40939 11848 ft 349 kts 98°
2026-04-14 13:02 13.55471 123.43364 11385 ft 348 kts 98°
2026-04-14 13:02 13.55064 123.45808 10967 ft 344 kts 98°
2026-04-14 13:02 13.54796 123.47407 10786 ft 338 kts 98°
2026-04-14 13:02 13.54274 123.50534 10573 ft 321 kts 98°
2026-04-14 13:03 13.54030 123.51994 10472 ft 308 kts 98°
2026-04-14 13:03 13.53674 123.54120 10324 ft 296 kts 98°
2026-04-14 13:03 13.53331 123.56172 10189 ft 285 kts 97°
2026-04-14 13:03 13.53001 123.58154 10067 ft 276 kts 98°
2026-04-14 13:04 13.52571 123.60736 9637 ft 273 kts 98°
2026-04-14 13:04 13.52359 123.62009 9417 ft 272 kts 98°
2026-04-14 13:04 13.51934 123.64555 8981 ft 270 kts 98°
2026-04-14 13:04 13.51721 123.65829 8763 ft 270 kts 98°
2026-04-14 13:05 13.51405 123.67710 8444 ft 269 kts 98°
2026-04-14 13:05 13.51087 123.69605 8119 ft 268 kts 97°
2026-04-14 13:05 13.50667 123.72112 7685 ft 266 kts 97°
2026-04-14 13:05 13.50457 123.73368 7468 ft 266 kts 97°
2026-04-14 13:06 13.50041 123.75851 7046 ft 264 kts 97°
2026-04-14 13:06 13.49730 123.77705 6722 ft 263 kts 97°
2026-04-14 13:06 13.49419 123.79551 6402 ft 262 kts 97°
2026-04-14 13:06 13.49108 123.81398 6088 ft 261 kts 97°
2026-04-14 13:07 13.48800 123.83235 5776 ft 259 kts 97°
2026-04-14 13:07 13.48497 123.85040 5464 ft 258 kts 97°
2026-04-14 13:07 13.48221 123.86842 5151 ft 255 kts 94°
2026-04-14 13:07 13.48129 123.88043 4953 ft 252 kts 90°
2026-04-14 13:08 13.48171 123.90421 4544 ft 247 kts 85°
2026-04-14 13:08 13.48227 123.91580 4344 ft 243 kts 85°
2026-04-14 13:08 13.48340 123.93858 3952 ft 238 kts 85°
2026-04-14 13:08 13.48397 123.95001 3757 ft 237 kts 85°
2026-04-14 13:09 13.48505 123.97231 3367 ft 230 kts 85°
2026-04-14 13:09 13.48554 123.98287 3296 ft 218 kts 85°
2026-04-14 13:09 13.48644 124.00259 3337 ft 196 kts 84°
2026-04-14 13:09 13.48689 124.01197 3322 ft 198 kts 84°
2026-04-14 13:10 13.48757 124.02595 3290 ft 195 kts 85°
2026-04-14 13:10 13.48837 124.04338 3148 ft 169 kts 85°
2026-04-14 13:10 13.48872 124.05116 3066 ft 156 kts 84°
2026-04-14 13:10 13.49090 124.06140 2966 ft 145 kts 63°
2026-04-14 13:11 13.49804 124.07303 2931 ft 145 kts 54°
2026-04-14 13:11 13.50388 124.08159 2715 ft 145 kts 54°
2026-04-14 13:11 13.50957 124.08996 2520 ft 143 kts 54°
2026-04-14 13:11 13.51344 124.09566 2374 ft 143 kts 54°
2026-04-14 13:12 13.52097 124.10684 2115 ft 140 kts 55°
2026-04-14 13:12 13.52462 124.11229 1984 ft 139 kts 55°
2026-04-14 13:12 13.53185 124.12320 1748 ft 138 kts 57°
2026-04-14 13:12 13.53509 124.12888 1630 ft 137 kts 59°
2026-04-14 13:13 13.53980 124.13739 1455 ft 137 kts 60°
2026-04-14 13:13 13.54449 124.14591 1280 ft 137 kts 60°
2026-04-14 13:13 13.55078 124.15736 1039 ft 136 kts 60°
2026-04-14 13:13 13.55386 124.16298 927 ft 136 kts 60°
2026-04-14 13:14 13.56007 124.17420 695 ft 136 kts 59°
2026-04-14 13:14 13.56312 124.17978 593 ft 135 kts 60°
2026-04-14 13:14 13.56931 124.19097 346 ft 134 kts 60°
2026-04-14 13:14 13.57383 124.19922 173 ft 131 kts 60°
2026-04-14 13:15 13.57764 124.20612 161 ft 72 kts 60°
2026-04-14 13:15 13.57920 124.20890 161 ft 36 kts 61°
2026-04-14 13:15 13.58008 124.21049 161 ft 18 kts 60°
2026-04-14 13:15 13.58067 124.21153 161 ft 7 kts 59°
2026-04-14 13:16 13.58073 124.21196 161 ft 5 kts 121°
2026-04-14 13:16 13.58050 124.21214 161 ft 6 kts 150°
2026-04-14 13:16 13.58011 124.21217 161 ft 5 kts 221°
2026-04-14 13:16 13.57998 124.21194 161 ft 1 kts 232°
2026-04-14 13:17 13.57972 124.21188 161 ft 4 kts 169°
2026-04-14 13:17 13.57958 124.21191 161 ft 2 kts 175°
2026-04-14 13:17 13.57956 124.21191 161 ft 0 kts 176°